Skip Page Navigation
NASA JPL Caltech
NASA Logo - Jet Propulsion Laboratory + View the NASA Portal
+ Near-Earth Object (NEO) Program
Search JPL
JPL Home Earth Solar System Stars & Galaxies Technology
JPL Solar System Dynamics
BODIES ORBITS EPHEMERIDES TOOLS PHYSICAL DATA DISCOVERY FAQ SITE MAP
JPL Small-Body Database Browser
Search: [ help ]  
10660 Felixhormuth (4348 T-1)
Classification: Main-belt Asteroid          SPK-ID: 2010660
Ephemeris | Orbit Diagram | Orbital Elements | Physical Parameters | Discovery Circumstances ]

[ show orbit diagram ]
Orbital Elements at Epoch 2456400.5 (2013-Apr-18.0) TDB
Reference: MPO236453 (heliocentric ecliptic J2000)
 Element Value Uncertainty (1-sigma)   Units 
e 0.1446210 n/a  
a 3.1549426 n/a AU
q 2.6986716 n/a AU
i 6.86798 n/a deg
node 40.61251 n/a deg
peri 123.23196 n/a deg
M 193.61926 n/a deg
tp 2457346.4891925
(2015-Nov-19.98919250)
n/a JED
period 2046.8481467
5.60
n/a
n/a
d
yr
n 0.17588017 n/a deg/d
Q 3.6112136 n/a AU
  Orbit Determination Parameters
   # obs. used (total)      428  
   first obs. used      1971-??-??  
   last obs. used      2012-08-21  
   # oppositions      15  
   planetary ephem.      DE403  
   condition code      0  
   fit RMS      0.58  
   data source      MPC:mpn  
   producer      MPCLINUX  

Additional Information
 T_jup = 3.179 

Ephemeris | Orbit Diagram | Orbital Elements | Physical Parameters | Discovery Circumstances ]

Physical Parameter Table
Parameter Symbol Value Units Sigma Reference Notes
absolute magnitude H 13.8 mag n/a PDS3 (MPC 34478)  

10660 Felixhormuth           Discovered 1971 Mar. 26 by C. J. van Houten and I. van Houten-Groeneveld on Palomar Schmidt plates taken by T. Gehrels.
Felix Hormuth (b. 1975) is a developer of auxiliary instruments at Calar Alto Observatory. An observer of minor planets for many years, he is also a supporter of the Faulkes Telescope Educational Project. The name was suggested by L. Kurtze and L. D. Schmadel.
NOTE: some special characters may not display properly (any characters within {} are an attempt to place the proper accent above a character)
Reference: 20070402/MPCPages.arcLast Updated: 2007-07-05
Ephemeris | Orbit Diagram | Orbital Elements | Physical Parameters | Discovery Circumstances ]
ABOUT SSD CREDITS/AWARDS PRIVACY/COPYRIGHT GLOSSARY LINKS
FirstGov 2013-Jun-20 03:00 UT
(server date/time)  
NASA Home Page
Site Manager:   Donald K. Yeomans
Webmaster  Alan B. Chamberlin